Stove Prairie

Current Conditions

Time07/10/2020 10:00 AM MST
Location40.619167,-105.356944
Elevation7,349 FT
Air Temp79°F
Surface Temp101°F
Dew Point Temp21°F
Relative Humidity12%
Visibility6,562 FT
Pressure782 MB
PrecipitationNone

Click a photo to enlarge.

76°3 mph
Wind from @ 3 mph

Past 24 Hours

All Data

Previous 24h observations for Stove Prairie
Time Air Temp
(°F)
Surface
(°F)
Dew Point
(°F)
Relative
Humidity
Precip. Wind Direction Wind Speed (mph) Visibility (ft) Pressure
(mb)
10:00 AM791012112NoneENE36,562782
09:45 AM78982213NoneNW36,562782
09:30 AM78942413NoneN56,562782
09:15 AM76912213NoneN46,562782
09:00 AM75882514NoneNNW36,562782
08:45 AM70832920NoneNNE16,562782
08:30 AM68763328NoneN36,562782
08:15 AM68733428NoneN26,562782
08:00 AM69733531NoneN06,562782
07:45 AM65723533NoneESE26,562782
07:30 AM61683639NoneNNE16,562782
07:15 AM56653442NoneN26,562782
07:00 AM54633548NoneN36,562782
06:45 AM54623856NoneNNW46,562782
06:30 AM53623856NoneNNW36,562782
06:15 AM53624162NoneNNW46,562782
06:00 AM53614370NoneNNW46,562781
05:45 AM51594479NoneNNW36,562781
05:30 AM54654671NoneNW46,562781
05:15 AM53614576NoneN26,562781
05:00 AM53614575NoneNNE16,562781
04:45 AM55654776NoneNW16,562781
04:30 AM54674674NoneN06,562781
04:15 AM54654673NoneNNE26,562781
04:00 AM54644673NoneNNE16,562781
03:45 AM55644467NoneNW26,562781
03:30 AM54664367NoneNNW56,562781
03:15 AM55574671NoneNNW46,562781
03:00 AM57674872NoneN06,562781
02:45 AM58674871NoneNNW16,562781
02:30 AM58684870NoneNNE16,562781
02:15 AM58694971NoneN06,562781
02:00 AM58644970NoneNNE26,562781
01:45 AM59684970NoneWNW16,562781
01:30 AM59664764NoneNNW26,562781
01:15 AM61694966NoneN26,562781
01:00 AM62724962NoneSW16,562781
12:45 AM61704861NoneS26,562781
12:30 AM62724859NoneN06,562781
12:15 AM62724760NoneE26,562781
12:00 AM62734759NoneN06,562781
11:45 PM63754757NoneSSE16,562781
11:30 PM63714755NoneNE16,562781
11:15 PM62774756NoneSSW16,562781
11:00 PM62734555NoneNNE16,562781
10:45 PM62714553NoneN06,562781
10:30 PM62734554NoneNNE26,562781
10:15 PM63744552NoneNNW36,562781
10:00 PM64734551NoneNNW26,562781
09:45 PM65744549NoneNNW26,562781
09:30 PM66744647NoneN36,562780
09:15 PM68764644NoneNNW26,562780
09:00 PM68784644NoneESE36,562780
08:45 PM70804643NoneESE46,562780
08:30 PM70814642NoneSSE56,562780
08:15 PM70824641NoneSE126,562780
08:00 PM72814538NoneESE126,562780
07:45 PM73834538NoneSSE86,562780
07:30 PM73844436NoneSSE116,562779
07:15 PM74854232NoneSSE136,562779
07:00 PM74874130NoneS76,562779
06:45 PM74884130NoneS116,562779
06:30 PM74884130NoneS146,562779
06:15 PM75904028NoneS116,562779
06:00 PM74923929NoneSSE126,562779
05:45 PM75933726NoneS106,562779
05:30 PM75943625NoneSSE106,562779
05:15 PM75953523NoneS136,562779
05:00 PM75953523NoneSSE116,562779
04:45 PM77983219NoneS66,562779
04:30 PM76993018NoneS76,562779
04:15 PM751012817NoneS86,562778
04:00 PM761032716NoneS106,562779
03:45 PM761072716NoneS116,562779
03:30 PM761062716NoneS136,562779
03:15 PM761122616NoneSSE116,562779
03:00 PM761132918NoneS116,562779
02:45 PM761113018NoneS96,562779
02:30 PM761163119NoneS116,562779
02:15 PM761183119NoneS146,562779
02:00 PM751093321NoneSSE126,562779
01:45 PM751153120NoneESE76,562779
01:30 PM771282818NoneSE66,562779
01:15 PM741082415NoneS116,562779
01:00 PM741122315NoneS166,562779
12:45 PM761252315NoneS156,562779
12:30 PM761232314NoneS176,562779
12:15 PM751172415NoneS146,562779
12:00 PM751122416NoneS126,562779
11:45 AM751142415NoneS136,562779
11:30 AM751152415NoneS146,562779
11:15 AM751122214NoneSSE116,562779
11:00 AM741052315NoneS106,562779
10:45 AM741102214NoneS116,562779
10:30 AM741072315NoneS106,562779
10:15 AM751042315NoneS86,562779

Red Feather Lakes

Current Conditions

Time07/10/2020 10:00 AM MST
Location40.790278,-105.574167
Elevation8,238 FT
Air Temp74°F
Surface Temp90°F
Dew Point Temp19°F
Relative Humidity12%
Visibility6,562 FT
Pressure758 MB
PrecipitationNone

Click a photo to enlarge.

262°18 mph
Wind from @ 18 mph

Past 24 Hours

All Data

Previous 24h observations for Red Feather Lakes
Time Air Temp
(°F)
Surface
(°F)
Dew Point
(°F)
Relative
Humidity
Precip. Wind Direction Wind Speed (mph) Visibility (ft) Pressure
(mb)
10:00 AM74901912NoneW186,562758
09:45 AM74852013NoneW166,562758
09:30 AM74811812NoneNW166,562758
09:15 AM73762313NoneW126,562758
09:00 AM73702013NoneSW26,562758
08:45 AM73662416NoneN06,562758
08:30 AM71642618NoneWSW26,562758
08:15 AM70662820NoneN06,562758
08:00 AM68662621NoneW36,562758
07:45 AM64613333NoneWNW56,562758
07:30 AM58603237NoneW46,562758
07:15 AM54563140NoneWSW56,562758
07:00 AM53552737NoneWSW66,562757
06:45 AM51552639NoneW56,562757
06:30 AM50542335NoneW76,562757
06:15 AM47542439NoneW66,562757
06:00 AM47552339NoneWNW46,562757
05:45 AM48582439NoneW36,562757
05:30 AM46582340NoneW26,562757
05:15 AM47562441NoneWNW26,562757
05:00 AM48572439NoneWNW16,562756
04:45 AM48582135NoneN06,562756
04:30 AM47592238NoneN06,562756
04:15 AM44572443NoneW26,562756
04:00 AM46552340NoneWSW56,562756
03:45 AM43562650NoneW86,562756
03:30 AM44552853NoneW46,562756
03:15 AM45592646NoneWNW36,562756
03:00 AM46572851NoneW46,562756
02:45 AM45563056NoneW76,562756
02:30 AM45583260NoneWSW46,562756
02:15 AM48553560NoneW66,562756
02:00 AM50573759NoneWNW26,562756
01:45 AM47593768NoneSW26,562756
01:30 AM49603764NoneW76,562756
01:15 AM47573871NoneW86,562756
01:00 AM48623970NoneW56,562756
12:45 AM49623969NoneWSW46,562756
12:30 AM49644071NoneW36,562757
12:15 AM49624070NoneW96,562757
12:00 AM48643971NoneW66,562757
11:45 PM51644066NoneW46,562757
11:30 PM53664164NoneSW36,562757
11:15 PM53654062NoneWSW46,562757
11:00 PM54664160NoneW56,562757
10:45 PM55674160NoneW76,562757
10:30 PM55674160NoneW56,562757
10:15 PM55664159NoneW66,562757
10:00 PM57674258NoneW56,562757
09:45 PM59694354NoneW46,562756
09:30 PM60704353NoneNNW16,562756
09:15 PM61714351NoneW26,562756
09:00 PM62734349NoneESE36,562756
08:45 PM63724349NoneE56,562756
08:30 PM64734346NoneENE76,562756
08:15 PM66744241NoneE106,562756
08:00 PM67744138NoneE86,562755
07:45 PM69773934NoneESE56,562755
07:30 PM69794034NoneSE46,562755
07:15 PM70803933NoneSSE66,562755
07:00 PM70803932NoneSSE86,562755
06:45 PM70823730NoneSSE86,562755
06:30 PM71823628NoneSSE66,562755
06:15 PM71853425NoneS86,562755
06:00 PM71853224NoneSE56,562755
05:45 PM71863124NoneSSE56,562755
05:30 PM71882921NoneSSE86,562755
05:15 PM71903224NoneSE66,562755
05:00 PM71903224NoneSSE86,562755
04:45 PM72933122NoneSE86,562755
04:30 PM71973123NoneSE76,562755
04:15 PM71983325NoneSSE76,562754
04:00 PM70913124NoneSSE66,562755
03:45 PM70913123NoneESE76,562755
03:30 PM70913123NoneESE46,562755
03:15 PM70933123NoneESE56,562755
03:00 PM70953123NoneSE86,562755
02:45 PM71943123NoneSE76,562755
02:30 PM321073222ESE70755
02:15 PM70923022NoneESE66,562755
02:00 PM70922821NoneESE86,562755
01:45 PM71962821NoneESE46,562755
01:30 PM71962619NoneSE126,562755
01:15 PM721052718NoneSE86,562755
01:00 PM711102921NoneESE66,562755
12:45 PM71952921NoneESE76,562755
12:30 PM71932921NoneE76,562755
12:15 PM74942315NoneNE46,562755
12:00 PM74972114NoneWSW36,562755
11:45 AM72872215NoneS66,562755
11:30 AM73902013NoneWNW46,562755
11:15 AM73902115NoneS36,562755
11:00 AM73912215NoneNNE26,562755
10:45 AM71972115NoneESE56,562755
10:30 AM731012316NoneSE96,562755
10:15 AM71962215NoneSE76,562755

Pinewood Reservoir

Current Conditions

Time07/10/2020 10:00 AM MST
Location40.3647,-105.2867
Elevation6,580 FT
Air Temp75°F
Surface Temp105°F
Dew Point Temp49°F
Relative Humidity39%
Visibility6,562 FT
Pressure798 MB
PrecipitationNone
Level of Grip82.0
State of Surface4.0

Click a photo to enlarge.

42°6 mph
Wind from @ 6 mph

Past 24 Hours

All Data

Previous 24h observations for Pinewood Reservoir
Time Air Temp
(°F)
Surface
(°F)
Dew Point
(°F)
Relative
Humidity
Precip. Wind Direction Wind Speed (mph) Visibility (ft) Pressure
(mb)
Level of GripState Surface
10:00 AM751054939NoneNE66,562798824
09:45 AM741004840NoneNE86,562798824
09:30 AM75984433NoneNE36,562798824
09:15 AM72944538NoneENE36,562798824
09:00 AM72914538NoneENE56,562798824
08:45 AM72894437NoneENE46,562798824
08:30 AM70864542NoneNNE46,562798824
08:15 AM69844541NoneNE66,562798824
08:00 AM69824643NoneS26,562798824
07:45 AM68814543NoneE26,562798824
07:30 AM65774343NoneSSW26,562798824
07:15 AM63734348NoneSW36,562798824
07:00 AM62714351NoneSSW46,562797824
06:45 AM61664556NoneSW46,562797824
06:30 AM61684455NoneW46,562797824
06:15 AM60654660NoneWSW66,562797824
06:00 AM63654655NoneS46,562797824
05:45 AM61694760NoneSSE26,562797824
05:30 AM60654660NoneWSW66,562797824
05:15 AM63704755NoneWNW46,562797824
05:00 AM62694657NoneSSW46,562797824
04:45 AM58694868NoneSSW46,562797824
04:30 AM55654878NoneSSW66,562797824
04:15 AM58685076NoneSSW46,562797824
04:00 AM58675073NoneWSW66,562797824
03:45 AM61715169NoneWSW46,562797824
03:30 AM62685065NoneSW16,562797824
03:15 AM64735165NoneE36,562797824
03:00 AM60735171NoneWSW16,562797824
02:45 AM61715169NoneWSW36,562796824
02:30 AM60725172NoneS46,562797824
02:15 AM60695069NoneWSW46,562797824
02:00 AM63725166NoneW36,562797824
01:45 AM63735164NoneW46,562797824
01:30 AM64745164NoneWSW26,562797824
01:15 AM63745164NoneSSW26,562797824
01:00 AM64715163NoneSW36,562797824
12:45 AM66735260NoneWSW46,562797824
12:30 AM66765261NoneW36,562797824
12:15 AM67755258NoneWSW46,562797824
12:00 AM68765357NoneS36,562797824
11:45 PM69785357NoneN06,562797824
11:30 PM69775256NoneENE56,562797824
11:15 PM68785153NoneE76,562797824
11:00 PM69795051NoneNE46,562797824
10:45 PM69785151NoneSE36,562797824
10:30 PM70795050NoneESE76,562797824
10:15 PM70805048NoneE66,562797824
10:00 PM70825151NoneN06,562797824
09:45 PM70825152NoneSSE46,562796824
09:30 PM71825250NoneW26,562796824
09:15 PM72845250NoneNNE66,562796824
09:00 PM72835148NoneENE36,562795824
08:45 PM73845147NoneNNE26,562795824
08:30 PM73855145NoneNNE76,562795824
08:15 PM74855043NoneNE66,562795824
08:00 PM74874942NoneNE76,562795824
07:45 PM74874940NoneNE66,562795824
07:30 PM75884839NoneNE96,562795824
07:15 PM75904737NoneNE126,562795824
07:00 PM75914736NoneNE66,562795824
06:45 PM76924635NoneNE106,562795824
06:30 PM76944634NoneNE116,562795824
06:15 PM77964532NoneNE116,562794824
06:00 PM77974431NoneNE106,562794824
05:45 PM771004329NoneNE116,562794824
05:30 PM771004229NoneNE136,562794824
05:15 PM771034329NoneNE96,562794824
05:00 PM771054330NoneNE96,562794824
04:45 PM771054329NoneENE106,562794824
04:30 PM771104329NoneENE96,562794824
04:15 PM781164228NoneNE106,562794824
04:00 PM781154026NoneNE106,562794824
03:45 PM781173824NoneENE176,562794824
03:30 PM781183521NoneENE136,562794824
03:15 PM791273319NoneENE86,562794824
03:00 PM781243219NoneENE116,562794824
02:45 PM771193219NoneENE66,562794824
02:30 PM781333319NoneENE156,562794824
02:15 PM771333219NoneNE136,562794824
02:00 PM781303118NoneENE186,562794824
01:45 PM771293219NoneNE126,562794824
01:30 PM781283118NoneNE136,562794824
01:15 PM791343016NoneNE136,562794824
01:00 PM781322715NoneENE126,562795824
12:45 PM791332514NoneENE126,562795824
12:30 PM781292313NoneENE136,562795824
12:15 PM781282212NoneENE116,562795824
12:00 PM781272414NoneENE106,562795824
11:45 AM781252112NoneENE146,562795824
11:30 AM761132113NoneENE136,562795824
11:15 AM761232113NoneE76,562795824
11:00 AM761222012NoneSE46,562795824
10:45 AM761162213NoneE86,562795824
10:30 AM751112113NoneS66,562795824
10:15 AM741102114NoneENE106,562795824

Masonville

Current Conditions

Time07/10/2020 09:45 AM MST
Location40.4875,-105.2108
Elevation5,387 FT
Air Temp76°F
Surface Temp98°F
Dew Point Temp48°F
Relative Humidity37%
Visibility6,562 FT
Pressure838 MB
PrecipitationNone

Click a photo to enlarge.

156°5 mph
Wind from @ 5 mph

Past 24 Hours

All Data

Previous 24h observations for Masonville
Time Air Temp
(°F)
Surface
(°F)
Dew Point
(°F)
Relative
Humidity
Precip. Wind Direction Wind Speed (mph) Visibility (ft) Pressure
(mb)
09:45 AM76984837NoneSSE56,562838
09:30 AM75954737NoneSSE36,562838
09:15 AM75914941NoneSE46,562838
09:00 AM73325146NoneSSE20838
08:45 AM73835351NoneSE36,562838
08:30 AM73325351NoneS20838
08:15 AM70765354NoneENE26,562838
08:00 AM69695254NoneN06,562838
07:45 AM67685156NoneN06,562838
07:30 AM66664853NoneNNE26,562838
07:15 AM64694652NoneNW46,562838
07:00 AM62674552NoneN26,562838
06:45 AM62674453NoneNW36,562838
06:30 AM61704453NoneN36,562838
06:15 AM62694452NoneNNW76,562837
06:00 AM62694451NoneNNW66,562837
05:45 AM62704452NoneNNW46,562837
05:30 AM63694756NoneNNW46,562837
05:15 AM63704755NoneNNW66,562837
05:00 AM32713257NW60837
04:45 AM64714958NoneNNW56,562837
04:30 AM64725059NoneNNW66,562837
04:15 AM64734960NoneN36,562837
04:00 AM64734959NoneNNW96,562837
03:45 AM62745065NoneNNW46,562837
03:30 AM61724965NoneW16,562837
03:15 AM61734965NoneNNE16,562837
03:00 AM61744965NoneENE16,562837
02:45 AM62744861NoneN06,562837
02:30 AM62744961NoneN06,562836
02:15 AM63744960NoneN06,562837
02:00 AM64744958NoneWNW36,562837
01:45 AM63764858NoneN06,562837
01:30 AM64764857NoneN06,562837
01:15 AM65764956NoneN06,562837
01:00 AM66784954NoneN06,562837
12:45 AM66774953NoneE26,562837
12:30 AM67794953NoneW16,562837
12:15 AM67784952NoneW26,562837
12:00 AM68794951NoneN06,562837
11:45 PM69804949NoneESE16,562837
11:30 PM69804949NoneNE26,562837
11:15 PM71804946NoneWNW26,562836
11:00 PM71824947NoneNNW26,562837
10:45 PM71814946NoneWNW36,562836
10:30 PM72824945NoneE26,562836
10:15 PM73854943NoneNE26,562836
10:00 PM74835043NoneWNW36,562836
09:45 PM75854940NoneNE20836
09:31 PM323232E30835
09:15 PM77874938NoneW46,562835
09:00 PM78874936NoneNNW76,562835
08:45 PM32883235N100835
08:30 PM80915035NoneENE66,562835
08:15 PM81324933ENE60834
07:30 PM83954931NoneE36,562834
06:45 PM329932N000
06:16 PM851024625NoneSE26,562833
05:30 PM3210932SE40833
05:00 PM85324222NoneESE40833
04:00 PM32323218ESE40833
03:45 PM861193517NoneESE36,562833
03:15 PM861243416NoneSE76,562833
03:00 PM851232913NoneS76,562833
02:45 PM86323114NoneSE60833
02:30 PM861342812NoneENE86,562833
02:15 PM323232SE70834
01:15 PM861412913NoneE46,562834
01:00 PM851382712NoneENE66,562834
12:48 PM851393114NoneE56,562834
12:30 PM323232N00834
12:15 PM851312712NoneSE86,562834
12:00 PM851272612NoneESE86,562834
11:45 AM831192512NoneSSE106,562834
11:30 AM831202813NoneSE66,562834
11:15 AM811133519NoneSSE56,562834
11:00 AM801032915NoneSSE96,562834
10:45 AM811133116NoneSSE76,562834
10:30 AM801093419NoneSE46,562834
10:15 AM781013420NoneSSE76,562835

Time to refresh Minute(s) Second(s)